This is the latest recevied weather packets stored in our database for station/object SQ6ELQ-11. If no packets are shown the sender has not sent any weather packets the latest 10 day(s).
| Time | Temp. | Humidity | Pressure | Rain* | Wind** | Luminosity | Snow |
|---|---|---|---|---|---|---|---|
| 1777747941 | 11.67° C | 37% | 1020.2 hPa | 0 mm | - | - | - |
| 1777746919 | 12.78° C | 34% | 1020.2 hPa | 0 mm | - | - | - |
| 1777745893 | 15° C | 30% | 1020.3 hPa | 0 mm | - | - | - |
| 1777744741 | 18.89° C | 24% | 1020 hPa | 0 mm | - | - | - |
| 1777743665 | 20° C | 20% | 1020 hPa | 0 mm | - | - | - |
| 1777742532 | 21.11° C | 16% | 1019.9 hPa | 0 mm | - | - | - |
| 1777741499 | 21.67° C | 15% | 1019.9 hPa | 0 mm | - | - | - |
| 1777740455 | 21.67° C | 15% | 1020.1 hPa | 0 mm | - | - | - |
| 1777739351 | 22.22° C | 12% | 1020.2 hPa | 0 mm | - | - | - |
| 1777738273 | 22.22° C | 13% | 1020.3 hPa | 0 mm | - | - | - |
| 1777737175 | 22.78° C | 12% | 1020.5 hPa | 0 mm | - | - | - |
| 1777736146 | 22.78° C | 11% | 1020.8 hPa | 0 mm | - | - | - |
| 1777735074 | 22.78° C | 11% | 1020.9 hPa | 0 mm | - | - | - |
| 1777734021 | 23.33° C | 12% | 1021.1 hPa | 0 mm | - | - | - |
| 1777732976 | 22.78° C | 13% | 1021.2 hPa | 0 mm | - | - | - |
| 1777732006 | 23.33° C | 12% | 1021.2 hPa | 0 mm | - | - | - |
| 1777730860 | 23.33° C | 13% | 1021.4 hPa | 0 mm | - | - | - |
| 1777729737 | 23.89° C | 15% | 1021.5 hPa | 0 mm | - | - | - |
| 1777728691 | 23.89° C | 18% | 1021.6 hPa | 0 mm | - | - | - |
| 1777727578 | 23.33° C | 21% | 1022.1 hPa | 0 mm | - | - | - |
| 1777726426 | 22.78° C | 23% | 1022.3 hPa | 0 mm | - | - | - |
| 1777725306 | 22.22° C | 23% | 1022.5 hPa | 0 mm | - | - | - |
| 1777724196 | 21.11° C | 25% | 1022.8 hPa | 0 mm | - | - | - |
| 1777723191 | 21.11° C | 24% | 1022.9 hPa | 0 mm | - | - | - |
| 1777722161 | 20.56° C | 24% | 1023.1 hPa | 0 mm | - | - | - |
* Rain latest hour (hover to see other rain measurements)
** Current wind speed in m/s (hover to see current wind gust speed)